[ hide orbit diagram ]
For accurate long-term ephemerides, please instead use our Horizons system.This orbit viewer was implemented using two-body methods, and hence should not be used for determining accurate long-term trajectories (over several years or decades) or planetary encounter circumstances.
Orbital Elements at Epoch 2459200.5 (2020-Dec-17.0) TDB
Reference: JPL 24 (heliocentric ecliptic J2000)
Element | Value | Uncertainty (1-sigma) | Units |
e | .1063930652406117 | 5.2205e-08 | |
a | 3.108375169276039 | 2.9508e-08 | au |
q | 2.777665607098956 | 1.6243e-07 | au |
i | 16.70684363568532 | 5.7257e-06 | deg |
node | 320.2123860608386 | 1.845e-05 | deg |
peri | 231.2237289915721 | 3.1106e-05 | deg |
M | 259.6576781869153 | 2.792e-05 | deg |
tp | 2459758.430648000225 (2022-Jun-27.93064800) | 0.00015854 | TDB |
period | 2001.69808362845 5.48 | 2.8504e-05 7.804e-08 | d yr |
n | .1798473021203243 | 2.561e-09 | deg/d |
Q | 3.439084731453122 | 3.2648e-08 | au |
|
| | Orbit Determination Parameters
Additional Information
|
[ show covariance matrix ]
Physical Parameter Table
Parameter |
Symbol |
Value |
Units |
Sigma |
Reference |
Notes |
absolute magnitude |
H |
14.5 |
|
n/a |
MPO526867 |
|
diameter |
diameter |
6.798 |
km |
0.118 |
urn:nasa:pds:neowise_diameters_albedos::2.0[mainbelt] (http://adsabs.harvard.edu/abs/2011ApJ...741...68M) |
|
geometric albedo |
albedo |
0.080 |
|
0.010 |
urn:nasa:pds:neowise_diameters_albedos::2.0[mainbelt] (http://adsabs.harvard.edu/abs/2011ApJ...741...68M) |
|
|
103668 (2000 CB51) Discovered 2000-Feb-02 by LINEAR at Socorro |
Reference: 20051019/Numbers.arc | Last Updated: 2005-10-26 |
|
[ show close-approach data ]
|